Location: Unspecified
(0.0000°N, 0.0000°E)
Time: 03:09:05
(UTC+00:00)

Vanguard 1 - Pass Details

Date: 10 December 2023
Orbit: 653 x 3826 km, 34.3° (Epoch: 22 February)

Event Time Altitude Azimuth Distance (km) Brightness Sun altitude
Rises 13:45:58 0° 252° (WSW) 3,328 13.3 54.2°
Reaches altitude 10° 13:48:07 10° 259° (W) 2,586 12.9 53.8°
Maximum altitude 13:53:55 44° 331° (NNW) 1,653 11.7 52.7°
Drops below altitude 10° 14:03:54 10° 40° (NE) 4,398 13.1 50.7°
Sets 14:08:47 0° 45° (NE) 5,953 13.7 49.8°
